Flag for Canada Weather past 2 weeks in Longueuil, Quebec, Canada

Now
44 °F

Quite cool.


Feels Like: 42 °F
Forecast: 42 / 47 °F
Wind: 3 mph from Northeast

Location: Mc Tavish

Current Time: Oct 21, 2014 at 2:25:47 PM

Latest Report: Oct 21, 2014 at 1:00 PM


Visibility: N/A

Pressure: 30.04 "Hg

Humidity: 77%

Dew point: 37 °F

Location of LongueuilLocation

Historic Weather in Longueuil — Graph

°F

Longueuil temperature yesterday

Maximum temperature yesterday: 45 °F (at 4:00 PM)
Minimum temperature yesterday: 37 °F (at 6:00 AM)
Average temperature yesterday: 41 °F

Past Weeks' High & Low Weather Summary

 TemperatureHumidityPressure
High75 °F (Oct 14, 4:00 PM)100% (Oct 8, 6:00 AM)30.29 "Hg (Oct 8, 6:00 AM)
Low37 °F (Oct 20, 6:00 AM)43% (Oct 6, 1:00 PM)29.44 "Hg (Oct 18, 2:00 PM)
Average54 °F72%29.88 "Hg
* Reported Oct 6 1:00 PM — Oct 21 1:00 PM, Longueuil, Weather by CustomWeather, © 2014

Note: Actual official high and low records may vary slightly from our data, if they occured in-between our weather recording intervals... More about our weather records

Advertising

Longueuil weather history for previous 24 hours

 ConditionsComfort  
Time TempWeatherWind HumidityBarometerVisibility
1:00 PM
Oct 21
44 °FQuite cool.3 mph77%30.04 "HgN/A
12:00 PM44 °FQuite cool.3 mph73%30.04 "HgN/A
11:00 AM44 °FQuite cool.3 mph77%30.03 "HgN/A
10:00 AM43 °FQuite cool.5 mph79%30.02 "HgN/A
9:00 AM43 °FQuite cool.2 mph85%30.01 "HgN/A
8:00 AM43 °FQuite cool.2 mph86%29.99 "HgN/A
7:00 AM43 °FQuite cool.2 mph84%29.97 "HgN/A
6:00 AM43 °FQuite cool.2 mph86%29.96 "HgN/A
5:00 AM43 °FQuite cool.1 mph88%29.95 "HgN/A
4:00 AM43 °FQuite cool.2 mph88%29.94 "HgN/A
3:00 AM43 °FQuite cool.2 mph86%29.93 "HgN/A
2:00 AM44 °FQuite cool.2 mph81%29.94 "HgN/A
1:00 AM44 °FQuite cool.2 mph77%29.93 "HgN/A
12:00 AM44 °FQuite cool.2 mph76%29.93 "HgN/A
11:00 PM
Oct 20
44 °FQuite cool.2 mph77%29.94 "HgN/A
10:00 PM44 °FQuite cool.2 mph76%29.93 "HgN/A
9:00 PM44 °FQuite cool.1 mph72%29.95 "HgN/A
8:00 PM44 °FQuite cool.1 mph77%29.94 "HgN/A
7:00 PM43 °FQuite cool.1 mph79%29.93 "HgN/A
6:00 PM43 °FQuite cool.1 mph74%29.93 "HgN/A
5:00 PM43 °FQuite cool.2 mph73%29.93 "HgN/A
4:00 PM45 °FQuite cool.1 mph58%29.92 "HgN/A
3:00 PM44 °FQuite cool.3 mph57%29.92 "HgN/A
2:00 PM44 °FQuite cool.3 mph57%29.93 "HgN/A
Weather by CustomWeather, © 2014

See weather overviewHow to use our weather pages